Location: Waco, TX
(31.5480°N, 97.1670°W)
Time: 12:37:24
(UTC-06:00)

ISS - Pass Details

Date: 10 February 2018
Orbit: 402 x 407 km, 51.6° (Epoch: 24 February)

Event Time Altitude Azimuth Distance (km) Brightness Sun altitude
Rises 11:19:16 0° 193° (SSW) 2,301 0.6 40.0°
Reaches altitude 10° 11:21:44 10° 174° (S) 1,445 0.0 40.3°
Maximum altitude 11:24:05 19° 127° (SE) 1,042 -0.6 40.5°
Drops below altitude 10° 11:26:26 10° 81° (E) 1,450 -0.7 40.7°
Sets 11:28:54 0° 62° (ENE) 2,312 0.0 40.9°
